Weather History for KHZY - May, 2014

Change the Weather History Date:

Tuesday, May 13, 2014

  Actual Average (KYNG) Record (KYNG)
Temperature  
Mean Temperature 76 °F 57 °F  
Max Temperature 87 °F 68 °F 88 °F (1936)
Min Temperature 64 °F 46 °F 29 °F (2013)
Degree Days  
Heating Degree Days 0 9  
Month to date heating degree days 132  
Since 1 July heating degree days 6159  
Cooling Degree Days 10 1  
Month to date cooling degree days 6  
Year to date cooling degree days 15  
Growing Degree Days 26 (Base 50)    
Moisture  
Dew Point 61 °F    
Average Humidity 69    
Maximum Humidity 90    
Minimum Humidity 39    
Precipitation  
Precipitation 0.01 in 0.12 in 1.53 in (1964)
Month to date precipitation 1.50  
Year to date precipitation 12.50  
Snow  
Snow 0.00 in 0.00 in - ()
Month to date snowfall 0.0  
Since 1 July snowfall 62.7  
Snow Depth -    
Sea Level Pressure  
Sea Level Pressure 30.03 in    
Wind  
Wind Speed 9 mph (SSW)    
Max Wind Speed 21 mph    
Max Gust Speed 28 mph    
Visibility 10 miles    
Events Rain , Thunderstorm    
T = Trace of Precipitation, MM = Missing Value Source: NWS Daily Summary

Daily Weather History Graph

Daily Weather History Graph

Search for Another Location

Airport or City:

Trip Planner

Search our weather history database for the weather conditions in past years. The results will help you decide how hot, cold, wet, or windy it might be!

Date:

Astronomy

May. 13, 2014 Rise Set
Actual Time 6:04 AM EDT 8:33 PM EDT
Civil Twilight 5:33 AM EDT 9:05 PM EDT
Nautical Twilight 4:54 AM EDT 9:44 PM EDT
Astronomical Twilight 4:10 AM EDT 10:29 PM EDT
Moon 7:32 PM EDT (5/13) 5:22 AM EDT (5/13)
Length of Visible Light 15h 32m
Length of Day
14h 28m
Waxing Gibbous, 98% of the Moon is Illuminated
May 13
Waxing Gibbous
May 14
Full
May 21
Last Quarter
May 28
New
Jun 5
First Quarter

Hourly Weather History & Observations

Time (EDT) Temp. Heat Index Dew Point Humidity Pressure Visibility Wind Dir Wind Speed Gust Speed Precip Events Conditions
12:53 AM 64.9 °F - 60.1 °F 84% 30.04 in 10.0 mi SSW 8.1 mph - N/A   Mostly Cloudy
2:19 AM 64.9 °F - 60.1 °F 84% 30.05 in 10.0 mi SSW 10.4 mph - N/A   Overcast
2:53 AM 64.0 °F - 60.1 °F 87% 30.02 in 10.0 mi SSW 8.1 mph - N/A Thunderstorm Mostly Cloudy
3:30 AM 64.0 °F - 59.0 °F 84% 30.03 in 10.0 mi South 9.2 mph - N/A   Scattered Clouds
3:53 AM 64.0 °F - 60.1 °F 87% 30.02 in 10.0 mi South 9.2 mph - N/A   Mostly Cloudy
4:53 AM 64.0 °F - 60.1 °F 87% 30.04 in 10.0 mi South 6.9 mph - N/A   Overcast
5:53 AM 64.0 °F - 59.0 °F 84% 30.04 in 10.0 mi South 6.9 mph - N/A   Overcast
6:53 AM 64.0 °F - 59.0 °F 84% 30.05 in 10.0 mi SSW 5.8 mph - N/A   Overcast
7:53 AM 66.9 °F - 60.1 °F 79% 30.06 in 10.0 mi South 6.9 mph - N/A   Partly Cloudy
9:53 AM 73.9 °F - 62.1 °F 66% 30.06 in 10.0 mi SSW 12.7 mph - N/A   Mostly Cloudy
10:53 AM 78.1 °F - 63.0 °F 60% 30.05 in 10.0 mi SSW 9.2 mph - N/A   Clear
12:53 PM 82.0 °F 83.1 °F 63.0 °F 52% 30.03 in 10.0 mi SW 12.7 mph 23.0 mph N/A   Partly Cloudy
1:53 PM 84.0 °F 84.5 °F 62.1 °F 47% 30.01 in 10.0 mi SSW 17.3 mph 24.2 mph N/A   Scattered Clouds
2:53 PM 86.0 °F 86.3 °F 62.1 °F 44% 29.99 in 10.0 mi SW 17.3 mph 24.2 mph N/A   Scattered Clouds
3:53 PM 86.0 °F 85.7 °F 60.1 °F 41% 29.96 in 10.0 mi SSW 19.6 mph 27.6 mph N/A   Partly Cloudy
4:53 PM 87.1 °F 86.5 °F 59.0 °F 39% 29.96 in 10.0 mi SW 20.7 mph 26.5 mph N/A   Clear
5:53 PM 86.0 °F 85.4 °F 59.0 °F 40% 29.97 in 10.0 mi SW 12.7 mph - N/A   Mostly Cloudy
6:53 PM 84.0 °F 83.8 °F 59.0 °F 43% 29.97 in 10.0 mi SW 9.2 mph - N/A   Scattered Clouds
7:53 PM 81.0 °F 81.3 °F 59.0 °F 47% 30.00 in 10.0 mi WSW 5.8 mph - N/A   Partly Cloudy
8:15 PM 72.0 °F - 60.1 °F 66% 30.05 in 10.0 mi NW 13.8 mph 23.0 mph N/A   Mostly Cloudy
8:53 PM 69.1 °F - 60.1 °F 73% 30.04 in 10.0 mi WNW 4.6 mph - N/A   Partly Cloudy
9:53 PM 66.0 °F - 61.0 °F 84% 30.06 in 10.0 mi Calm Calm - N/A   Partly Cloudy
10:21 PM 66.0 °F - 61.0 °F 84% 30.08 in 10.0 mi SW 4.6 mph - N/A Thunderstorm Scattered Clouds
10:41 PM 66.9 °F - 62.1 °F 84% 30.07 in 8.0 mi Calm Calm - 0.01 in Rain , Thunderstorm Light Thunderstorms and Rain
10:53 PM 66.9 °F - 62.1 °F 84% 30.06 in 10.0 mi SE 4.6 mph - 0.01 in Rain Light Rain
11:53 PM 64.9 °F - 62.1 °F 90% 30.05 in 8.0 mi Calm Calm - 0.00 in   Clear